RH
26 21 18 21 24 24 22 22 19 19 21 23 24 23 23 22 22 21 23 23 24 25 26 29 32 35 39 42 45 47 51 54 57 62 64 66 68 69 73 74 78 83 81
28 21 18 22 26 25 24 24 20 20 22 23 23 23 22 22 23 22 23 25 24 26 27 28 32 36 39 42 44 48 51 54 59 63 66 68 70 79 74 79 85 80 80
27 22 18 20 27 27 26 25 23 23 23 23 22 22 21 22 23 24 23 24 24 26 27 28 29 33 38 43 45 48 52 55 57 63 65 75 69 68 74 76 81 79 79
27 26 20 21 28 27 26 24 23 24 25 25 24 22 22 23 23 24 24 24 24 27 29 30 29 32 38 43 45 48 49 51 52 56 59 70 73 78 75 73 77 81 85
30 30 23 24 31 28 25 22 22 24 24 25 24 24 23 24 24 23 24 24 24 27 29 32 31 36 40 40 42 43 43 43 45 50 87 74 82 78 80 77 78 81 85
36 36 28 28 32 30 24 23 22 24 25 25 25 25 25 25 24 23 24 25 26 28 30 31 33 38 40 38 38 41 41 43 45 55 62 66 72 80 85 88 87 82 89
38 41 32 32 31 29 26 25 24 26 27 26 27 27 26 26 25 24 24 26 27 29 31 33 35 39 37 38 40 44 45 46 49 60 62 71 74 82 85 89 90 95 96
39 41 36 35 33 29 28 28 25 27 28 28 28 28 27 26 25 25 26 27 29 31 33 35 36 37 39 39 42 45 49 49 53 65 71 74 68 72 76 82 92 93 95
41 44 43 36 33 32 32 31 28 27 28 28 29 29 29 28 27 26 27 27 30 33 34 36 35 38 39 40 41 46 49 52 62 61 63 67 68 74 80 87 82 93 93
43 44 44 39 35 33 33 32 30 29 29 29 30 29 29 30 29 28 29 29 31 33 35 35 36 37 40 42 42 46 48 52 58 62 61 64 70 70 76 81 84 85 86
46 52 45 42 40 36 34 32 30 30 30 30 30 30 31 31 31 30 30 31 33 36 38 36 35 37 40 43 44 48 47 53 57 61 59 67 69 67 77 80 83 83 86
40 55 53 46 44 40 39 36 30 29 29 30 30 29 29 34 34 36 34 34 35 37 39 37 38 37 40 45 46 49 49 60 57 59 59 60 65 65 69 75 87 90 92
28 49 56 50 49 46 44 41 34 33 32 31 29 30 29 34 38 37 42 37 34 33 34 33 34 37 39 52 59 54 58 65 62 59 57 51 54 58 63 77 93 90 93
24 37 56 58 49 47 47 43 40 38 37 35 33 32 31 34 38 42 40 41 37 35 37 35 37 39 43 48 53 64 62 64 66 64 54 50 49 54 59 66 75 84 93
24 25 39 61 55 48 47 47 40 38 41 39 38 32 32 38 37 38 39 44 37 39 39 40 41 39 46 46 46 52 57 60 56 60 55 56 50 56 58 56 61 86 87
28 27 29 49 59 55 50 46 43 39 41 37 37 37 31 33 38 40 39 39 39 38 44 47 42 40 44 43 45 45 47 52 52 55 55 54 53 49 53 56 57 61 76
18 29 30 41 54 61 54 50 46 41 40 43 35 33 29 32 34 37 41 42 42 39 43 44 44 46 45 44 47 48 47 46 47 47 53 53 55 49 47 57 55 59 72
9 19 31 33 44 55 60 56 50 44 40 42 37 35 30 29 35 35 37 41 40 42 39 39 39 40 42 45 44 47 49 50 50 43 46 52 54 50 49 46 54 59 62
11 9 18 29 34 48 57 63 54 46 38 37 38 36 33 30 33 36 32 32 39 40 39 38 40 40 40 42 44 43 45 46 46 50 50 49 46 49 46 46 47 52 60
17 15 17 22 28 39 51 65 63 52 44 39 38 35 37 34 32 37 37 37 35 42 41 38 39 38 41 44 46 46 46 45 45 43 43 45 44 46 47 55 57 56 59
34 31 27 23 26 34 54 61 71 56 48 40 34 35 38 40 32 34 36 37 34 36 38 39 43 44 42 43 45 44 46 46 44 44 42 42 42 42 42 44 55 58 58
36 35 30 23 21 33 60 61 74 65 53 44 38 34 30 33 34 34 36 42 37 40 41 43 47 52 44 42 45 47 47 45 43 42 42 42 42 42 41 44 46 49 51
35 34 25 24 21 29 49 79 72 72 65 54 41 39 37 40 41 36 38 43 44 45 49 49 54 55 54 46 47 46 49 46 47 47 47 44 44 46 47 45 43 43 47
42 39 30 23 23 29 47 66 66 77 62 51 48 52 51 52 54 55 51 52 54 52 53 53 57 60 62 57 54 48 49 50 55 56 54 50 46 44 44 43 45 46 50
52 42 40 31 30 29 42 54 67 74 71 65 58 66 62 60 64 69 62 65 60 60 61 65 63 69 68 66 60 58 51 55 60 59 55 56 53 50 45 46 44 48 52
68 49 50 43 42 40 38 54 68 81 91 87 80 92 71 64 62 70 65 65 67 63 60 64 65 68 69 83 70 70 69 67 64 66 62 57 59 58 50 52 52 49 51